FW7859 Weather Reports


time (UTC)temp
F
wind
direction
speed
knots
gust
knots
rain 1hr
in
rain 24hr
in
rain mn
in
humidity
%
barometer
mb
20260507142004 63 342 4.3 8.7 0.00 0.52 0.52 82 1011.9
20260507141503 63 1 4.3 8.7 0.01 0.52 0.52 82 1011.9
20260507141003 63 9 5.2 9.6 0.01 0.52 0.52 82 1011.8
20260507140504 63 14 4.3 9.6 0.01 0.52 0.52 82 1011.9
20260507140003 63 19 3.5 9.6 0.01 0.52 0.52 83 1011.8
20260507135713 64 48 3.5 9.6 0.01 0.52 0.52 83 1011.7
20260507135003 63 86 4.3 13.0 0.01 0.52 0.52 83 1011.9
20260507134503 64 72 4.3 13.0 0.01 0.52 0.52 83 1011.8
20260507134003 63 85 3.5 9.6 0.01 0.52 0.52 83 1011.8
20260507133715 63 63 3.5 9.6 0.01 0.52 0.52 84 1012.0
20260507133003 62 79 3.5 8.7 0.01 0.52 0.52 85 1011.9
20260507132503 62 82 2.6 7.0 0.01 0.52 0.52 86 1011.7
20260507132003 62 85 3.5 7.8 0.01 0.52 0.52 85 1011.7
20260507131503 62 106 3.5 7.8 0.00 0.51 0.51 86 1011.9
20260507131005 63 100 3.5 9.6 0.00 0.51 0.51 85 1012.1
20260507130503 62 92 3.5 9.6 0.00 0.51 0.51 84 1012.3
20260507130004 62 65 2.6 9.6 0.00 0.51 0.51 83 1012.2
20260507125503 62 74 4.3 13.0 0.00 0.51 0.51 82 1012.3
20260507125003 62 78 4.3 14.8 0.00 0.51 0.51 81 1012.4
20260507124715 63 64 5.2 14.8 0.00 0.51 0.51 80 1012.3
20260507124003 63 59 4.3 14.8 0.00 0.51 0.51 79 1012.2
20260507123503 63 60 4.3 12.2 0.00 0.51 0.51 78 1012.3
20260507123004 63 59 5.2 13.0 0.00 0.51 0.51 78 1012.2
20260507122717 63 53 5.2 14.8 0.00 0.51 0.51 79 1012.2
20260507122004 63 42 6.1 19.1 0.00 0.51 0.51 84 1012.7
20260507121503 63 41 6.1 18.2 0.00 0.51 0.51 83 1012.2
20260507121003 63 32 7.0 19.1 0.00 0.51 0.51 82 1012.4
20260507120504 64 56 6.1 19.1 0.00 0.51 0.51 80 1012.7
20260507120005 65 59 5.2 16.5 0.00 0.51 0.51 77 1012.8
20260507115503 66 43 4.3 12.2 0.00 0.51 0.51 72 1012.5
20260507115003 65 53 3.5 8.7 0.00 0.51 0.51 71 1012.3
20260507114503 65 70 2.6 8.7 0.00 0.51 0.51 73 1012.5
20260507114213 64 58 2.6 7.8 0.00 0.51 0.51 74 1012.5
20260507113503 64 20 2.6 7.8 0.00 0.51 0.51 78 1012.5
20260507113214 64 347 3.5 8.7 0.00 0.51 0.51 79 1012.7
20260507112503 62 9 2.6 8.7 0.01 0.51 0.51 84 1012.6
20260507112003 62 43 1.7 7.0 0.01 0.51 0.51 86 1012.6
20260507111504 62 339 1.7 7.0 0.01 0.51 0.51 88 1012.8
20260507111004 61 339 2.6 8.7 0.01 0.51 0.51 90 1012.9
20260507110714 60 342 3.5 8.7 0.01 0.51 0.51 90 1013.0
20260507110003 59 323 1.7 7.8 0.03 0.51 0.51 90 1013.2
20260507105503 58 26 1.7 7.0 0.05 0.51 0.51 90 1013.3
20260507105003 58 24 2.6 7.0 0.09 0.51 0.51 89 1013.4
20260507104504 58 6 5.2 14.8 0.12 0.51 0.51 89 1013.4
20260507104003 58 6 7.8 14.8 0.13 0.51 0.51 89 1013.4
20260507103503 59 16 7.0 14.8 0.14 0.51 0.51 89 1013.2
20260507103215 60 24 6.1 14.8 0.16 0.51 0.51 89 1012.9
20260507102504 59 22 8.7 19.1 0.20 0.50 0.50 89 1013.0
20260507102007 60 15 7.0 19.1 0.25 0.50 0.50 88 1013.2
20260507101714 59 13 7.0 19.1 0.26 0.50 0.50 88 1013.3
20260507101217 57 358 6.1 13.9 0.27 0.50 0.50 88 1013.1
20260507100503 57 17 7.0 15.6 0.34 0.50 0.50 89 1013.2
20260507100003 58 26 7.0 15.6 0.42 0.48 0.48 88 1013.3
20260507095503 57 19 7.0 13.9 0.46 0.46 0.46 88 1013.2
20260507095005 57 21 6.1 13.9 0.42 0.42 0.42 88 1013.3
20260507094717 56 360 5.2 12.2 0.40 0.40 0.40 88 1013.1
20260507094215 57 322 3.5 12.2 0.38 0.38 0.38 89 1013.1
20260507093503 57 313 2.6 6.1 0.37 0.37 0.37 89 1013.3
20260507093216 57 344 3.5 9.6 0.35 0.35 0.36 89 1013.3
20260507092503 57 15 5.2 12.2 0.30 0.30 0.30 88 1013.2
20260507092003 56 27 6.1 13.0 0.25 0.25 0.25 88 1013.0
20260507091503 56 11 7.8 14.8 0.23 0.23 0.23 88 1012.8
20260507091003 57 357 10.4 19.1 0.22 0.22 0.22 89 1013.2
20260507090715 58 7 9.6 20.9 0.19 0.19 0.20 88 1013.0
20260507090004 62 22 6.1 20.9 0.06 0.06 0.06 85 1013.0
20260507085504 62 358 6.1 9.6 0.00 0.00 0.00 83 1012.8
20260507085003 62 24 5.2 15.6 0.00 0.00 0.00 82 1013.0
20260507084503 63 360 6.1 16.5 0.00 0.00 0.00 81 1012.7
20260507084003 65 337 5.2 16.5 0.00 0.00 0.00 82 1012.8
20260507083503 65 348 5.2 9.6 0.00 0.00 0.00 83 1012.8
20260507083003 65 3 5.2 9.6 0.00 0.00 0.00 83 1012.4
20260507082503 65 348 4.3 9.6 0.00 0.00 0.00 83 1012.4
20260507082003 65 324 5.2 8.7 0.00 0.00 0.00 83 1012.5
20260507081503 65 338 5.2 8.7 0.00 0.00 0.00 83 1012.6
20260507081003 65 341 5.2 8.7 0.00 0.00 0.00 83 1012.3
20260507080503 65 344 6.1 9.6 0.00 0.00 0.00 83 1012.3
20260507080004 65 352 5.2 9.6 0.00 0.00 0.00 84 1012.3
20260507075503 65 5 2.6 7.8 0.00 0.00 0.00 83 1012.6
20260507075003 65 343 2.6 7.0 0.00 0.00 0.00 83 1012.7
20260507074503 65 336 3.5 7.8 0.00 0.00 0.00 83 1012.7
20260507074004 65 358 4.3 7.8 0.00 0.00 0.00 83 1012.5
20260507073504 65 27 2.6 7.0 0.00 0.00 0.00 83 1012.6
20260507073217 65 28 2.6 7.0 0.00 0.00 0.00 84 1012.3
20260507072504 65 21 2.6 7.0 0.00 0.00 0.00 84 1012.3
20260507072007 65 46 1.7 8.7 0.00 0.00 0.00 84 1012.5
20260507071716 64 45 1.7 8.7 0.00 0.00 0.00 85 1012.4
20260507071003 64 343 3.5 7.0 0.00 0.00 0.00 84 1012.5
20260507070503 64 329 3.5 7.0 0.00 0.00 0.00 85 1012.6
20260507070006 64 310 2.6 6.1 0.00 0.00 0.00 84 1012.5
20260507065713 64 317 2.6 6.1 0.00 0.00 0.00 85 1012.4
20260507065004 64 318 3.5 7.8 0.00 0.00 0.00 85 1012.6
20260507064503 64 314 4.3 7.8 0.00 0.00 0.00 85 1012.1
20260507064003 63 323 3.5 7.8 0.00 0.00 0.00 85 1011.8
20260507063503 63 331 4.3 7.8 0.00 0.00 0.00 85 1011.9
20260507063003 63 333 4.3 7.8 0.00 0.00 0.00 86 1011.9
20260507062503 63 333 4.3 7.8 0.00 0.00 0.00 85 1011.9
20260507062213 63 331 4.3 7.8 0.00 0.00 0.00 85 1012.0
20260507061503 62 338 4.3 7.8 0.00 0.00 0.00 85 1011.7
20260507061003 62 346 3.5 7.8 0.00 0.00 0.00 85 1011.8
20260507060503 62 350 4.3 7.8 0.00 0.00 0.00 85 1011.6
20260507060003 62 19 2.6 7.0 0.00 0.00 0.00 85 1011.8
20260507055713 62 54 2.6 7.0 0.00 0.00 0.00 85 1011.6
20260507055216 62 84 1.7 6.1 0.00 0.00 0.00 85 1011.7
20260507054503 63 360 2.6 7.0 0.00 0.00 0.00 85 1011.7
20260507054217 63 342 3.5 7.0 0.00 0.00 0.00 85 1011.7
20260507053503 63 333 4.3 7.0 0.00 0.00 0.00 85 1011.8
20260507053213 63 333 3.5 7.8 0.00 0.00 0.00 85 1011.8
20260507052503 62 349 4.3 7.8 0.00 0.00 0.00 85 1011.9
20260507052003 62 348 4.3 8.7 0.00 0.00 0.00 85 1011.7
20260507051503 62 341 5.2 8.7 0.00 0.00 0.00 85 1011.7
20260507051003 62 337 4.3 8.7 0.00 0.00 0.00 84 1011.5
20260507050503 62 330 4.3 11.3 0.00 0.00 0.00 84 1011.6
20260507050003 62 332 5.2 11.3 0.00 0.00 0.00 84 1011.6
20260507045504 62 333 5.2 8.7 0.00 0.00 0.00 84 1011.4
20260507045003 62 324 4.3 9.6 0.00 0.00 0.00 84 1011.4
20260507044715 62 318 4.3 9.6 0.00 0.00 0.00 84 1011.4
20260507044004 62 313 3.5 8.7 0.00 0.00 0.00 84 1011.5
20260507043503 62 339 4.3 8.7 0.00 0.00 0.00 84 1011.5
20260507043003 62 344 5.2 8.7 0.00 0.00 0.00 84 1011.3
20260507042508 62 340 6.1 8.7 0.00 0.00 0.00 84 1011.4
20260507042004 62 332 4.3 8.7 0.00 0.00 0.00 84 1011.5
20260507041505 62 342 4.3 7.8 0.00 0.00 0.00 84 1011.7
20260507041003 62 351 4.3 7.8 0.00 0.00 0.00 84 1011.6
20260507040714 62 353 5.2 8.7 0.00 0.00 0.00 84 1011.6
20260507040217 62 355 5.2 8.7 0.00 0.00 0.00 84 1011.4
20260507035503 62 356 5.2 9.6 0.00 0.00 0.00 85 1011.5
20260507035004 62 360 4.3 8.7 0.00 0.00 0.00 85 1011.4
20260507034503 62 356 2.6 6.1 0.00 0.00 0.00 85 1011.5
20260507034003 62 342 1.7 6.1 0.00 0.00 0.00 86 1011.5
20260507033504 62 349 2.6 7.0 0.00 0.00 0.00 86 1011.6
20260507033003 62 350 3.5 7.0 0.00 0.00 0.00 86 1011.4
20260507032504 62 354 3.5 7.0 0.00 0.00 0.00 86 1011.4
20260507032215 62 357 3.5 7.0 0.00 0.00 0.00 87 1011.2
20260507031713 62 342 3.5 7.0 0.00 0.00 0.00 87 1011.4
20260507031003 62 322 2.6 7.0 0.00 0.00 0.00 87 1011.5
20260507030503 62 307 2.6 3.5 0.00 0.00 0.00 87 1011.5
20260507030003 62 306 2.6 3.5 0.00 0.00 0.00 87 1011.6
20260507025503 62 314 2.6 5.2 0.00 0.00 0.00 87 1011.5
20260507025213 62 323 2.6 6.1 0.00 0.00 0.00 87 1011.6
20260507024503 62 330 3.5 6.1 0.00 0.00 0.00 87 1011.6
20260507024003 62 342 2.6 6.1 0.00 0.00 0.00 87 1011.6
20260507023503 62 353 3.5 6.1 0.00 0.00 0.00 87 1011.4
20260507023004 62 349 3.5 6.1 0.00 0.00 0.00 87 1011.6
20260507022503 62 340 3.5 7.0 0.00 0.00 0.00 87 1011.6
20260507022003 62 320 2.6 7.0 0.00 0.00 0.00 86 1011.8
20260507021503 62 313 2.6 5.2 0.00 0.00 0.00 86 1011.7
20260507021003 62 328 2.6 6.1 0.00 0.00 0.00 86 1011.9
20260507020503 62 325 2.6 6.1 0.00 0.00 0.00 86 1012.0
20260507020003 62 340 2.6 5.2 0.00 0.00 0.00 86 1011.9
20260507015503 62 7 2.6 5.2 0.00 0.00 0.00 86 1012.0
20260507015214 62 15 1.7 3.5 0.00 0.00 0.00 86 1011.7
20260507014717 62 27 0.9 3.5 0.00 0.00 0.00 86 1011.9
20260507014215 62 13 0.9 3.5 0.00 0.00 0.00 86 1011.9
20260507013503 62 345 1.7 3.5 0.00 0.00 0.00 85 1012.2
20260507013003 63 352 1.7 5.2 0.00 0.00 0.00 85 1012.1
20260507012503 63 342 2.6 5.2 0.00 0.00 0.00 85 1012.3
20260507012003 63 339 2.6 5.2 0.00 0.00 0.00 85 1012.2
20260507011503 63 339 2.6 5.2 0.00 0.00 0.00 85 1012.3
20260507011003 63 329 2.6 5.2 0.00 0.00 0.00 85 1012.3
20260507010503 63 330 1.7 3.5 0.00 0.00 0.00 85 1012.3
20260507010004 63 13 0.9 3.5 0.00 0.00 0.00 84 1012.3
20260507005503 63 341 0.9 3.5 0.00 0.00 0.00 84 1012.4
20260507005003 63 307 1.7 3.5 0.00 0.00 0.00 84 1012.5
20260507004503 63 309 2.6 5.2 0.00 0.00 0.00 84 1012.3
20260507004003 63 309 2.6 5.2 0.00 0.00 0.00 84 1012.5
20260507003503 63 290 1.7 3.5 0.00 0.00 0.00 84 1012.3
20260507003216 63 293 1.7 5.2 0.00 0.00 0.00 84 1012.5
20260507002503 63 300 2.6 5.2 0.00 0.00 0.00 84 1012.2
20260507002003 63 305 2.6 5.2 0.00 0.00 0.00 84 1012.2
20260507001503 63 303 1.7 5.2 0.00 0.00 0.00 84 1012.1
20260507001003 63 260 0.9 2.6 0.00 0.00 0.00 84 1012.3
20260507000503 62 248 0.9 5.2 0.00 0.00 0.00 84 1012.2
20260507000003 62 249 1.7 5.2 0.00 0.00 0.00 84 1012.1
20260506235503 62 250 1.7 5.2 0.00 0.00 0.00 84 1012.2
20260506235003 62 252 0.9 3.5 0.00 0.00 0.00 84 1012.5
20260506234504 62 252 0.9 2.6 0.00 0.00 0.00 84 1012.4
20260506234003 62 256 1.7 3.5 0.00 0.00 0.00 84 1012.4
20260506233503 62 264 1.7 3.5 0.00 0.00 0.00 83 1012.5
20260506233003 62 259 1.7 3.5 0.00 0.00 0.00 83 1012.5
20260506232503 61 237 1.7 2.6 0.00 0.00 0.00 83 1012.6
20260506232213 61 239 1.7 3.5 0.00 0.00 0.00 83 1012.6
20260506231503 62 254 2.6 5.2 0.00 0.00 0.00 82 1012.7
20260506231004 62 254 2.6 5.2 0.00 0.00 0.00 82 1012.6
20260506230503 62 254 1.7 5.2 0.00 0.00 0.00 82 1012.9
20260506230003 62 249 0.9 2.6 0.00 0.00 0.00 82 1012.8
20260506225504 62 249 0.9 2.6 0.00 0.00 0.00 82 1012.6
20260506225003 62 252 2.6 5.2 0.00 0.00 0.00 82 1012.5
20260506224503 62 251 1.7 5.2 0.00 0.00 0.00 81 1012.9
20260506224003 63 247 0.9 2.6 0.00 0.00 0.00 81 1012.9
20260506223503 64 245 0.9 1.7 0.00 0.00 0.00 80 1012.7
20260506223003 64 249 0.9 1.7 0.00 0.00 0.00 80 1013.0
20260506222716 64 251 0.9 1.7 0.00 0.00 0.00 80 1012.9
20260506222003 64 276 1.7 2.6 0.00 0.00 0.00 80 1012.9
20260506221504 64 289 0.9 2.6 0.00 0.00 0.00 80 1012.6
20260506221003 64 275 0.9 1.7 0.00 0.00 0.00 80 1012.8
20260506220503 64 121 0.0 1.7 0.00 0.00 0.00 80 1012.7
20260506220006 64 93 0.9 2.6 0.00 0.00 0.00 80 1012.5
20260506215503 64 46 0.9 2.6 0.00 0.00 0.00 80 1012.5
20260506215003 64 360 0.9 2.6 0.00 0.00 0.00 80 1012.6
20260506214503 64 5 1.7 3.5 0.00 0.00 0.00 80 1013.0
20260506214003 64 29 1.7 5.2 0.00 0.00 0.00 80 1013.1
20260506213503 64 38 1.7 5.2 0.00 0.00 0.00 80 1013.0
20260506213213 64 34 1.7 5.2 0.00 0.00 0.00 79 1013.0
20260506212503 64 66 1.7 5.2 0.00 0.00 0.00 79 1013.0
20260506212214 64 94 0.9 3.5 0.00 0.00 0.00 79 1013.3
20260506211503 65 177 0.9 2.6 0.00 0.00 0.00 79 1013.3
20260506211003 65 164 0.9 2.6 0.00 0.00 0.00 79 1013.3
20260506210519 65 155 0.9 2.6 0.00 0.00 0.00 79 1013.3
20260506210004 65 144 1.7 2.6 0.00 0.00 0.00 78 1013.1
20260506205503 65 139 1.7 2.6 0.00 0.00 0.00 78 1013.1
20260506205217 65 139 0.9 2.6 0.00 0.00 0.00 78 1013.3
20260506204503 65 124 1.7 3.5 0.00 0.00 0.00 77 1012.9
20260506204003 65 134 1.7 3.5 0.00 0.00 0.00 77 1012.9
20260506203503 65 155 1.7 3.5 0.00 0.00 0.00 77 1013.2
20260506203214 65 155 1.7 3.5 0.00 0.00 0.00 77 1013.0
20260506202717 65 143 1.7 5.2 0.00 0.00 0.00 76 1012.7
20260506202003 65 125 2.6 5.2 0.00 0.00 0.00 76 1012.7
20260506201503 65 134 1.7 3.5 0.00 0.00 0.00 76 1012.8
20260506201003 65 129 0.9 3.5 0.00 0.00 0.00 75 1012.7
20260506200503 65 119 1.7 6.1 0.00 0.00 0.00 75 1012.7
20260506200003 65 127 2.6 6.1 0.00 0.00 0.00 75 1012.3
20260506195503 65 123 1.7 5.2 0.00 0.00 0.00 75 1012.6
20260506195213 65 101 1.7 5.2 0.00 0.00 0.00 75 1012.5
20260506194503 65 102 2.6 7.0 0.00 0.00 0.00 75 1012.5
20260506194003 65 105 3.5 7.0 0.00 0.00 0.00 75 1012.3
20260506193503 65 100 2.6 7.0 0.00 0.00 0.00 75 1012.2
20260506193003 65 106 2.6 7.0 0.00 0.00 0.00 75 1012.3
20260506192503 65 112 2.6 7.0 0.00 0.00 0.00 75 1012.2
20260506192003 66 104 2.6 6.1 0.00 0.00 0.00 74 1012.0
20260506191503 66 101 2.6 7.0 0.00 0.00 0.00 74 1012.1
20260506191003 66 103 3.5 8.7 0.00 0.00 0.00 74 1012.0
20260506190503 65 110 5.2 8.7 0.00 0.00 0.00 74 1011.8
20260506190004 66 113 4.3 8.7 0.00 0.00 0.00 75 1012.0
20260506185716 66 112 4.3 8.7 0.00 0.00 0.00 74 1011.8
20260506185003 66 118 3.5 8.7 0.00 0.00 0.00 73 1011.9
20260506184503 66 113 3.5 8.7 0.00 0.00 0.00 73 1011.8
20260506184214 66 110 4.3 8.7 0.00 0.00 0.00 74 1011.9
20260506183503 66 77 2.6 8.7 0.00 0.00 0.00 74 1011.8
20260506183003 66 52 2.6 9.6 0.00 0.00 0.00 74 1011.5
20260506182504 66 42 3.5 9.6 0.00 0.00 0.00 75 1011.5
20260506182216 66 37 3.5 8.7 0.00 0.00 0.00 75 1011.6
20260506181503 66 46 3.5 9.6 0.00 0.00 0.00 74 1011.4
20260506181217 66 69 3.5 9.6 0.00 0.00 0.00 74 1011.5
20260506180503 67 104 4.3 11.3 0.00 0.00 0.00 73 1011.6
20260506180004 66 89 4.3 12.2 0.00 0.00 0.00 74 1011.4
20260506175503 66 87 4.3 12.2 0.00 0.00 0.00 74 1011.5
20260506175003 67 90 5.2 13.0 0.00 0.00 0.00 73 1011.5
20260506174503 66 90 5.2 13.0 0.00 0.00 0.00 73 1011.5
20260506174003 67 91 5.2 13.0 0.00 0.00 0.00 72 1011.3
20260506173503 67 88 5.2 13.0 0.00 0.00 0.00 71 1011.7
20260506173003 67 92 6.1 13.9 0.00 0.00 0.00 70 1011.5
20260506172504 67 93 5.2 13.9 0.00 0.00 0.00 69 1011.6
20260506172003 67 89 4.3 13.9 0.00 0.00 0.00 69 1011.5
20260506171503 67 108 6.1 15.6 0.00 0.00 0.00 69 1011.4
20260506171003 67 113 7.8 15.6 0.00 0.00 0.00 67 1011.6
20260506170503 67 111 6.1 15.6 0.00 0.00 0.00 69 1011.5
20260506170003 67 101 5.2 13.9 0.00 0.00 0.00 69 1011.6
20260506165503 67 104 6.1 15.6 0.00 0.00 0.00 71 1011.5
20260506165004 67 109 7.8 16.5 0.00 0.00 0.00 70 1011.5
20260506164503 67 100 7.0 16.5 0.00 0.00 0.00 71 1011.5
20260506164003 67 95 5.2 15.6 0.00 0.00 0.00 68 1011.6
20260506163503 67 102 6.1 18.2 0.00 0.00 0.00 68 1011.6
20260506163003 67 105 7.8 18.2 0.00 0.00 0.00 69 1011.4
20260506162503 67 91 7.0 16.5 0.00 0.00 0.00 70 1011.7
20260506162003 67 81 6.1 16.5 0.00 0.00 0.00 69 1011.7
20260506161503 68 93 5.2 13.9 0.00 0.00 0.00 70 1011.5
20260506161003 68 90 4.3 12.2 0.00 0.00 0.00 70 1011.5
20260506160716 68 96 5.2 13.0 0.00 0.00 0.00 69 1011.8
20260506160003 68 113 7.8 15.6 0.00 0.00 0.00 69 1011.7
20260506155503 68 98 7.0 15.6 0.00 0.00 0.00 69 1011.6
20260506155003 68 94 6.1 15.6 0.00 0.00 0.00 69 1011.5
20260506154503 68 91 6.1 15.6 0.00 0.00 0.00 69 1011.6
20260506154004 68 87 7.0 15.6 0.00 0.00 0.00 69 1011.5
20260506153503 68 92 7.8 16.5 0.00 0.00 0.00 69 1011.9
20260506153217 68 87 7.0 16.5 0.00 0.00 0.00 69 1011.5
20260506152503 68 103 7.8 20.0 0.00 0.00 0.00 67 1011.7
20260506152004 68 94 8.7 20.0 0.00 0.00 0.00 67 1011.2
20260506151504 69 60 7.0 19.1 0.00 0.00 0.00 64 1011.4
20260506151003 68 57 7.0 19.1 0.00 0.00 0.00 65 1011.7
20260506150717 69 68 6.1 16.5 0.00 0.00 0.00 66 1011.4
20260506150003 69 80 6.1 16.5 0.00 0.00 0.00 62 1011.7
20260506145503 69 99 7.0 14.8 0.00 0.00 0.00 60 1011.5
20260506145004 69 115 7.8 16.5 0.00 0.00 0.00 59 1011.5
20260506144503 69 105 7.0 16.5 0.00 0.00 0.00 61 1011.2
20260506144003 70 107 7.0 15.6 0.00 0.00 0.00 60 1011.4
20260506143503 69 102 6.1 14.8 0.00 0.00 0.00 61 1011.4
20260506143213 69 89 5.2 14.8 0.00 0.00 0.00 59 1011.5
20260506142503 69 91 9.6 20.0 0.00 0.00 0.00 62 1011.4